Theta_e
316 315 315 315 314 314 316 318 321 339 338 340 339 340 341 338 336 335 333 332 332 332 329 329 327 326 325 323 322 319 318 316 315 313 312 312 310 309 308 306 304 303 304 302
316 317 317 316 314 315 317 336 340 339 339 340 338 340 339 339 338 337 336 334 332 332 329 330 328 325 321 319 318 317 315 314 313 311 310 309 309 308 307 306 304 302 303 301
318 319 317 318 317 317 317 329 340 340 338 336 337 338 338 336 339 339 336 333 332 331 330 325 321 319 319 318 317 315 314 312 310 309 307 308 308 307 305 304 303 302 301 301
318 318 319 321 321 319 320 321 339 340 337 341 334 341 335 336 338 340 337 337 334 324 321 319 318 319 318 317 316 314 312 310 308 307 307 307 307 306 303 301 301 301 300 300
319 320 320 321 321 319 325 338 339 334 338 338 341 338 337 337 337 336 339 331 322 322 318 318 318 318 317 316 315 313 311 308 307 306 306 306 305 301 301 301 300 300 300 300
317 317 319 318 320 322 332 332 327 325 334 341 339 341 343 340 337 335 339 324 321 319 318 317 317 316 314 314 313 312 309 307 306 306 305 304 302 301 301 301 301 301 301 301
320 320 319 320 320 325 326 318 328 329 339 344 339 343 340 343 339 335 334 323 320 318 316 315 315 313 312 313 313 311 309 307 307 305 303 302 301 301 301 302 301 300 299 300
320 327 323 321 320 321 321 320 324 328 345 343 341 349 343 338 325 329 323 320 319 316 314 313 312 311 312 312 312 310 308 306 306 305 303 303 302 302 302 302 301 299 299 298
320 328 325 321 321 323 326 324 322 332 335 339 341 343 341 325 323 322 321 320 319 317 315 313 310 311 311 312 311 309 305 304 305 303 303 302 302 302 303 301 300 300 301 300
321 327 326 324 323 323 324 321 325 328 342 345 342 346 341 330 325 321 320 319 319 316 314 311 309 310 310 310 308 305 305 304 304 304 304 303 303 304 303 302 301 301 302 302
321 325 328 324 324 326 326 325 321 323 333 340 344 342 328 340 325 321 318 317 316 316 314 309 308 309 310 307 305 305 304 304 304 304 304 304 304 304 304 303 303 303 303 303
325 323 327 327 325 322 324 324 321 326 330 334 336 335 318 327 321 319 316 315 315 316 312 308 308 309 308 307 305 305 304 304 304 304 305 305 305 304 303 303 303 304 304 303
324 324 326 326 323 323 326 324 320 324 329 335 336 330 320 320 319 317 316 315 315 313 311 308 307 308 307 306 304 304 305 304 304 305 305 306 305 304 303 303 303 303 304 304
326 322 325 329 326 323 327 326 325 325 332 334 332 325 322 321 319 317 316 315 315 313 312 308 307 307 307 306 304 305 305 305 306 305 306 306 305 304 303 303 304 305 305 305
321 324 324 324 326 325 327 328 329 329 328 330 327 323 320 320 319 318 315 314 315 315 312 308 307 307 306 306 304 304 305 306 306 306 305 305 304 304 303 304 304 305 305 305
320 324 323 325 328 328 330 330 327 327 325 323 322 323 316 317 315 316 315 316 317 315 313 309 308 308 307 306 305 304 305 305 306 305 305 305 305 304 304 303 305 305 305 305
322 321 324 327 327 326 329 329 329 326 324 320 325 321 318 318 318 316 314 315 316 315 313 309 308 309 306 305 305 304 304 305 305 306 306 306 305 305 305 304 304 305 305 305
324 323 321 326 323 329 324 321 324 324 321 319 320 319 318 318 314 313 312 313 315 315 312 309 310 309 306 305 304 305 305 304 305 306 306 306 306 305 304 304 304 305 304 304
322 324 325 327 327 325 325 323 323 325 324 318 320 317 315 314 314 314 311 312 314 313 312 310 311 309 306 305 305 305 304 304 304 305 306 306 306 305 304 304 304 304 304 304
324 323 328 327 328 329 324 323 322 320 325 319 318 317 316 316 317 314 311 313 314 314 312 311 310 308 307 306 305 305 304 304 304 304 305 306 306 305 305 305 305 304 304 304
325 326 330 331 333 330 324 324 321 327 326 319 317 316 315 317 314 311 311 313 315 312 311 311 311 309 309 306 305 304 304 304 304 305 305 306 306 306 304 303 304 304 304 304
327 326 328 330 332 333 326 326 326 321 316 317 315 315 315 312 310 312 313 313 312 311 311 311 310 309 308 306 305 305 304 304 305 305 305 305 305 306 306 304 304 304 304 305
325 322 329 327 326 323 321 324 317 315 316 315 313 312 311 311 312 312 312 312 313 312 312 311 310 309 308 307 306 305 304 304 305 305 304 305 305 306 306 306 305 305 305 305
330 325 328 327 324 319 317 316 316 316 315 313 312 312 311 312 311 311 310 311 313 312 312 311 310 309 308 308 308 306 306 304 305 305 305 305 305 305 306 307 307 306 306 306
328 326 324 323 321 318 318 317 315 314 313 311 311 311 311 311 311 311 309 310 313 312 311 311 310 310 309 309 309 307 306 305 305 305 305 305 304 304 306 307 308 308 307 306
326 324 326 324 320 319 317 315 314 314 313 312 312 311 311 312 310 310 310 311 312 312 311 310 311 312 311 311 310 307 306 305 305 304 305 304 304 305 306 308 308 308 306 307
Wind_Speed
1 4 4 6 6 6 5 4 4 4 0 7 8 11 5 4 8 7 7 7 4 5 1 5 5 8 12 14 15 17 18 20 22 24 24 24 24 23 25 26 27 28 25 27
5 3 6 6 6 6 3 4 4 5 5 8 7 6 3 3 5 6 9 6 6 1 4 2 9 14 16 18 17 18 19 19 19 20 20 18 17 19 22 26 28 29 27 26
4 4 5 6 4 6 6 6 6 7 8 9 12 4 0 3 1 2 4 5 3 4 5 8 14 16 16 19 16 16 16 16 19 20 21 22 21 24 27 30 29 27 27 26
3 3 3 1 4 7 4 8 13 16 5 5 1 2 2 3 4 2 4 6 5 7 9 11 14 16 16 15 12 13 15 18 19 21 23 22 20 19 25 27 26 25 27 25
4 2 3 2 5 8 1 16 14 6 6 5 2 4 3 5 5 4 5 7 7 6 9 9 13 15 14 12 11 12 14 17 19 22 21 19 20 22 24 25 27 26 25 24
7 3 4 8 3 7 15 17 9 6 4 3 3 4 3 5 5 5 6 9 10 9 8 12 15 14 12 10 11 11 14 16 17 18 17 18 18 21 22 25 28 28 23 22
4 4 4 4 9 2 8 6 3 2 1 4 2 2 4 2 4 10 13 12 10 9 7 6 10 10 10 8 8 9 13 13 14 15 17 16 16 17 21 25 25 25 26 26
2 2 3 4 7 9 9 7 6 6 5 4 2 4 3 3 6 9 14 13 11 9 6 6 11 10 10 7 7 9 11 12 13 13 14 14 16 18 21 20 20 25 25 26
4 4 3 2 3 3 5 4 5 8 3 4 2 2 4 7 8 11 13 13 12 9 9 9 12 11 9 8 8 7 10 11 11 12 11 13 17 17 18 16 17 21 24 24
1 1 2 2 4 8 4 6 3 4 5 2 3 4 4 7 8 10 12 11 11 10 9 9 12 11 10 10 7 7 9 9 8 10 11 13 15 15 15 15 16 19 22 22
5 3 3 4 4 3 1 2 7 6 3 5 4 5 3 13 14 14 11 9 10 10 10 7 12 11 10 8 7 7 6 7 9 10 12 15 16 16 14 15 16 18 19 21
5 5 4 1 5 1 3 3 4 5 4 2 3 5 6 9 13 14 11 8 7 10 8 10 12 10 9 6 5 5 5 7 8 10 14 16 15 17 16 16 18 18 18 19
7 1 4 6 6 3 6 3 4 6 4 4 5 4 5 10 12 9 12 10 8 8 7 8 10 8 7 5 4 4 5 7 8 11 14 16 14 15 15 17 19 18 20 22
8 4 6 7 7 4 4 3 2 4 4 5 5 5 4 7 12 10 10 9 9 8 8 5 7 8 6 4 3 3 4 5 8 10 12 14 14 14 15 17 18 21 20 20
4 4 3 4 1 4 3 3 3 3 5 3 3 8 10 11 12 11 9 9 9 8 7 6 5 8 6 4 3 2 4 6 8 10 13 12 12 13 12 15 18 18 19 20
3 2 2 8 8 6 6 6 9 5 5 6 6 1 5 7 8 8 10 10 9 8 8 6 8 9 7 4 4 2 1 5 7 10 13 12 13 14 13 13 17 16 19 21
4 5 3 1 3 5 4 3 0 3 3 7 5 6 11 7 12 13 11 10 10 9 8 7 10 10 7 4 4 3 2 2 5 7 9 10 12 14 14 10 14 17 18 18
5 4 3 3 3 1 3 4 3 3 3 3 3 7 11 11 6 6 6 10 9 8 8 9 12 11 8 5 4 4 2 0 4 7 9 9 12 11 13 10 13 16 19 17
6 5 4 5 2 4 6 4 6 5 7 6 7 8 9 10 6 1 6 7 9 10 17 18 15 14 9 7 5 4 3 2 2 5 8 8 9 9 10 10 12 15 18 16
6 7 5 3 5 6 6 4 5 4 4 10 10 14 15 12 5 4 9 9 13 21 22 18 15 13 9 7 5 5 4 3 1 5 7 6 6 7 7 8 9 10 13 16
3 3 4 2 2 5 4 4 5 4 6 9 14 16 16 8 4 6 12 10 20 23 21 16 17 16 13 9 6 5 5 5 1 4 5 5 5 6 7 8 7 8 10 14
5 5 2 3 3 5 1 4 7 4 3 7 9 12 12 6 7 15 13 11 16 16 17 17 19 17 11 9 6 4 5 4 2 3 4 4 6 6 7 7 7 7 9 13
1 4 5 6 4 2 3 2 2 3 5 5 8 8 7 12 9 12 9 11 16 21 21 20 19 14 12 10 6 4 3 5 3 4 4 4 7 7 9 9 8 8 9 12
1 2 4 3 1 3 3 1 2 2 4 7 6 14 12 11 13 10 7 10 12 20 21 19 16 15 14 11 7 4 3 5 4 6 4 5 7 9 10 11 9 9 9 10
3 5 5 1 2 2 2 3 4 7 9 12 9 10 11 15 11 10 7 12 16 21 18 17 16 15 14 10 8 3 3 4 4 5 6 6 8 10 10 10 10 9 8 6
5 7 4 5 7 5 5 6 6 9 8 10 14 7 11 16 11 12 11 18 20 20 19 14 14 13 13 11 9 3 3 4 5 5 5 6 9 10 8 9 10 6 9 4
Wind_Direction
21 93 193 204 160 145 131 127 158 95 43 75 112 111 74 102 115 129 170 210 213 219 119 132 116 91 83 72 65 51 37 25 13 8 6 3 1 2 9 12 12 11 6 5
31 223 202 118 137 135 146 127 142 110 98 97 117 70 60 119 149 179 203 203 211 195 101 132 75 81 79 75 61 46 34 23 20 20 15 6 360 1 5 1 5 7 8 6
150 210 97 147 154 141 200 186 184 132 108 65 117 75 43 334 126 240 248 183 165 185 110 84 83 91 84 67 54 43 34 31 26 17 7 4 6 8 2 1 358 0 4 6
212 260 184 147 209 162 221 184 138 138 121 155 181 164 202 210 207 163 108 112 112 91 89 88 90 88 81 72 57 46 37 30 25 18 18 20 18 10 0 2 4 4 8 6
248 210 184 270 224 166 1 108 117 121 84 115 358 95 199 168 217 197 148 112 87 88 104 99 95 96 82 66 56 45 36 30 25 20 20 20 18 14 8 6 2 3 1 5
230 220 246 205 127 139 127 89 53 52 77 46 249 141 232 187 194 176 151 113 113 109 103 99 103 98 76 66 59 43 32 27 20 18 19 21 22 21 10 0 359 358 351 349
331 236 242 149 96 45 104 90 61 16 14 210 276 80 236 273 203 182 147 135 127 122 112 97 97 93 75 67 56 39 26 21 12 16 16 18 19 17 5 10 8 359 358 357
156 328 180 187 153 174 191 163 152 184 176 203 22 196 262 50 50 105 132 130 122 117 111 102 106 93 79 79 66 42 22 11 14 13 12 13 16 10 9 15 18 13 10 12
164 288 324 19 103 125 178 67 149 107 60 104 200 271 90 100 89 111 124 126 133 128 119 118 111 102 88 81 72 37 21 30 23 14 15 16 12 5 8 10 20 17 16 18
210 73 346 153 66 44 121 146 90 28 133 171 243 246 223 166 163 142 137 143 141 126 128 124 113 106 99 94 66 49 44 30 16 13 9 11 7 359 3 9 2 0 6 12
146 126 287 35 17 173 57 60 58 106 102 151 165 253 10 185 171 156 152 155 141 143 140 124 115 110 113 89 72 69 48 30 26 25 21 14 12 6 5 6 359 1 7 13
181 130 77 122 299 173 88 123 124 119 215 89 141 266 327 150 143 148 145 137 127 138 132 124 128 121 115 102 75 66 45 31 26 26 18 4 7 11 15 10 5 10 12 16
173 32 82 358 349 7 67 56 101 98 95 182 140 259 52 104 122 138 137 140 135 132 125 133 133 133 126 123 88 86 52 37 39 18 18 16 13 13 16 16 17 26 27 26
102 105 146 178 201 141 128 144 143 107 109 165 223 170 188 149 143 141 139 137 142 145 144 143 145 155 142 138 111 101 40 24 16 14 12 8 15 21 22 24 31 25 22 21
89 103 88 10 128 99 106 133 144 97 141 140 222 184 192 175 161 154 144 139 140 147 149 166 175 170 168 154 139 139 34 23 29 26 23 27 29 29 29 29 18 24 24 29
17 108 118 34 22 63 84 80 90 62 108 78 94 283 149 123 112 135 155 150 156 167 173 175 178 176 185 176 157 158 43 38 40 43 38 33 27 25 22 19 33 35 34 33
79 128 77 79 27 33 22 236 76 152 158 147 169 212 148 152 166 165 158 163 171 174 171 175 185 186 190 175 178 189 178 37 38 34 26 22 17 16 17 29 28 24 21 27
117 91 73 125 13 233 260 312 181 127 127 159 96 162 169 155 119 128 152 161 166 162 164 182 184 190 192 189 192 204 216 156 36 21 17 17 16 17 29 44 31 20 15 20
80 103 80 133 170 308 320 211 149 176 231 178 137 120 119 112 76 48 163 157 162 161 180 188 190 189 189 205 210 208 211 198 37 17 17 21 21 28 36 29 18 20 19 21
57 74 107 137 151 194 237 191 166 159 304 165 147 152 144 134 153 227 166 149 158 175 183 187 188 185 191 203 213 209 205 211 258 1 8 14 16 15 360 356 359 10 22 31
31 20 113 118 146 285 250 154 160 94 238 160 161 159 158 167 179 160 146 151 169 177 184 188 185 190 199 192 198 211 214 218 247 353 1 5 12 8 12 18 12 12 18 18
163 130 146 96 95 253 105 87 161 208 22 141 147 165 158 110 119 139 147 157 161 169 182 187 186 199 201 200 204 235 231 215 294 334 353 348 343 346 351 356 5 12 9 12
147 172 172 172 210 261 299 282 337 143 141 148 133 148 132 123 141 143 154 158 168 179 182 191 195 198 206 204 224 229 220 214 271 305 312 326 328 326 327 317 318 331 350 1
38 147 96 94 231 318 331 344 57 94 115 122 123 145 140 138 148 148 153 166 167 178 182 191 191 199 206 207 217 236 259 228 273 297 291 311 325 323 333 341 319 309 326 355
195 129 143 272 265 132 59 67 126 91 98 98 104 135 141 139 149 154 158 173 180 178 185 186 191 201 205 205 216 241 275 236 278 300 307 311 328 331 339 344 348 339 320 314
185 165 156 211 182 144 164 161 143 122 123 124 124 112 130 145 146 155 167 181 176 176 175 178 189 195 202 202 213 210 264 232 284 319 320 332 333 331 341 350 2 360 350 314